Location: Newark
(36.0797°N, 3.9744°E)
Time: 19:49:13
(UTC+00:00)

Vanguard 2 - Pass Details

Date: 10 December 2019
Orbit: 553 x 2938 km, 32.9° (Epoch: 28 January)

Event Time Altitude Azimuth Distance (km) Brightness Sun altitude
Exits shadow 01:51:53 54° 105° (ESE) 3,380 10.6 -57.9°
Drops below altitude 10° 02:04:13 10° 84° (E) 5,519 12.3 -55.5°
Sets 02:08:09 0° 82° (E) 6,352 12.8 -54.7°
